Overview Statistics Trail Chart Weather Telemetry Raw packets
 

This is the latest recevied weather packets stored in our database for station/object KF6FPU-15. If no packets are shown the sender has not sent any weather packets the latest 10 day(s).

<< 17 18 19 20 21 22 23 >>
Time Temp. Humidity Pressure Rain* Wind** Luminosity Snow
1788376980 35° C 19% 1017.5 hPa - - - -
1788376380 33.33° C 19% 1017.7 hPa - - - -
1788375780 31.67° C 19% 1017.7 hPa - - - -
1788375180 31.11° C 19% 1017.8 hPa - - - -
1788374580 31.11° C 19% 1017.7 hPa - - - -
1788373980 31.11° C 19% 1017.7 hPa - - - -
1788373380 31.11° C 19% 1017.5 hPa - - - -
1788372780 31.11° C 19% 1017.4 hPa - - - -
1788372180 31.11° C 19% 1017.4 hPa - - - -
1788371580 30.56° C 19% 1017.3 hPa - - - -
1788370380 30° C 19% 1017.2 hPa - - - -
1788369780 30° C 19% 1017.2 hPa - - - -
1788369180 30° C 19% 1017.3 hPa - - - -
1788368580 30° C 19% 1017.2 hPa - - - -
1788367980 30.56° C 19% 1017.1 hPa - - - -
1788367380 30.56° C 19% 1017.1 hPa - - - -
1788366780 30.56° C 20% 1017.1 hPa - - - -
1788366180 30.56° C 19% 1017 hPa - - - -
1788365580 30.56° C 20% 1017.1 hPa - - - -
1788364980 30° C 20% 1017.1 hPa - - - -
1788363780 30° C 20% 1017.2 hPa - - - -
1788363180 30° C 20% 1017.2 hPa - - - -
1788362580 30° C 20% 1017.1 hPa - - - -
1788361980 30° C 20% 1017 hPa - - - -
1788361380 30° C 20% 1017 hPa - - - -

* Rain since midnight (hover to see other rain measurements)
** Current wind speed in m/s (hover to see current wind gust speed)